This is the latest recevied weather packets stored in our database for station/object N5ZP. If no packets are shown the sender has not sent any weather packets the latest 10 day(s).
| Time | Temp. | Humidity | Pressure | Rain* | Wind** | Luminosity | Snow |
|---|---|---|---|---|---|---|---|
| 1788580447 | 30.56° C | 56% | 1010.4 hPa | 0 mm | - | 0 W/m² | - |
| 1788580144 | 30° C | 56% | 1010.3 hPa | 0 mm | - | 0 W/m² | - |
| 1788579839 | 30° C | 57% | 1010.3 hPa | 0 mm | - | 0 W/m² | - |
| 1788579537 | 30° C | 57% | 1010.2 hPa | 0 mm | - | 0 W/m² | - |
| 1788579233 | 30° C | 57% | 1010.3 hPa | 0 mm | - | 0 W/m² | - |
| 1788578932 | 30° C | 58% | 1010.4 hPa | 0 mm | - | 0 W/m² | - |
| 1788578628 | 30° C | 58% | 1010.1 hPa | 0 mm | - | 0 W/m² | - |
| 1788578323 | 30° C | 58% | 1010.1 hPa | 0 mm | - | 0 W/m² | - |
| 1788578019 | 30° C | 58% | 1010 hPa | 0 mm | - | 0 W/m² | - |
| 1788577713 | 30° C | 58% | 1010.2 hPa | 0 mm | - | 0 W/m² | - |
| 1788577410 | 30° C | 59% | 1010 hPa | 0 mm | - | 0 W/m² | - |
| 1788577109 | 30° C | 58% | 1010.1 hPa | 0 mm | - | 0 W/m² | - |
| 1788576804 | 30.56° C | 57% | 1010.2 hPa | 0 mm | - | 0 W/m² | - |
| 1788576500 | 30.56° C | 56% | 1010.1 hPa | 0 mm | - | 0 W/m² | - |
| 1788576195 | 31.11° C | 56% | 1009.9 hPa | 0 mm | - | 0 W/m² | - |
| 1788575891 | 31.11° C | 55% | 1010.1 hPa | 0 mm | - | 0 W/m² | - |
| 1788575586 | 31.11° C | 55% | 1009.8 hPa | 0 mm | - | 0 W/m² | - |
| 1788575284 | 31.67° C | 54% | 1009.7 hPa | 0 mm | - | 0 W/m² | - |
| 1788574980 | 31.67° C | 54% | 1009.7 hPa | 0 mm | - | 0 W/m² | - |
| 1788574675 | 31.67° C | 53% | 1009.5 hPa | 0 mm | - | 0 W/m² | - |
| 1788574370 | 31.67° C | 52% | 1009.5 hPa | 0 mm | - | 0 W/m² | - |
| 1788574070 | 31.67° C | 52% | 1009.5 hPa | 0 mm | - | 0 W/m² | - |
| 1788573765 | 31.67° C | 51% | 1009.3 hPa | 0 mm | - | 0 W/m² | - |
| 1788573464 | 32.22° C | 51% | 1009 hPa | 0 mm | - | 0 W/m² | - |
| 1788573158 | 32.22° C | 50% | 1009.1 hPa | 0 mm | - | 0 W/m² | - |
* Rain latest hour (hover to see other rain measurements)
** Current wind speed in m/s (hover to see current wind gust speed)